Legenda:
Basso (0-210)
Molto Alto (490 - 630)

Moderato (210 - 350)
Estremo (630 - 800)

Alto (350 - 490)
Molto estremo (800+)


 
170.31
Date Temp. (°C) Wind Speed (km/h) Rain (mm) RH Days Since Rain pwsFWI
La previsione è attiva (incluso oggi!), I valori sono sopra la linea rossa.
26/01/21 13.00 17.00 0.00 0.45 1 87.78
25/01/21 15.00 23.00 0.20 0.66 0 96.21
24/01/21 14.00 39.00 6.10 0.54 0 118.10
23/01/21 14.00 22.00 0.00 0.55 1 100.02
22/01/21 16.00 27.00 1.20 0.72 0 143.71
21/01/21 17.60 13.30 0.00 0.49 3 170.31
20/01/21 14.10 8.60 0.00 0.61 2 174.99
19/01/21 14.40 20.90 0.00 0.57 1 256.10
18/01/21 13.30 23.40 3.00 0.59 0 289.86
17/01/21 15.50 35.60 0.00 0.50 1 310.26
16/01/21 11.20 28.10 0.60 0.50 0 246.70
15/01/21 14.80 24.50 0.60 0.60 0 209.39
14/01/21 17.60 39.20 0.00 0.41 2 178.46
13/01/21 16.80 29.50 0.00 0.56 1 90.06
12/01/21 12.50 24.50 0.30 0.52 0 34.03
11/01/21 10.70 20.90 2.70 0.78 0 17.89
10/01/21 12.90 19.40 1.20 0.87 0 49.98
09/01/21 11.30 23.40 26.70 0.92 0 80.52
08/01/21 9.90 17.30 0.00 0.87 1 114.55
07/01/21 9.30 12.20 9.30 0.76 0 110.35
06/01/21 10.40 12.20 0.00 0.61 4 153.02
05/01/21 12.60 24.50 0.00 0.52 3 185.92
04/01/21 13.50 22.00 0.00 0.52 2 191.53
03/01/21 12.60 20.90 0.00 0.52 1 203.29
02/01/21 13.60 36.70 3.00 0.51 0 201.03
01/01/21 15.20 27.00 0.00 0.56 2 211.34
31/12/20 14.90 25.60 0.00 0.47 1 133.12
30/12/20 13.40 31.70 0.60 0.58 0 115.06
29/12/20 15.40 31.70 0.60 0.59 0 115.97
28/12/20 17.70 37.80 2.70 0.50 0 133.76
CumulusUtils Version 2.1.7 © Hans Rottier
Science background here. - NOTE: Behavioural testing still under way!
Prediction courtesy of https://www.yourweather.co.uk/